Location: *
(2.5500°S, 65.9667°W)
Time: 06:03:53
(UTC+00:00)

Tiros 1 despin weight - Pass Details

Date: 16 April 2024
Orbit: 578 x 621 km, 48.2° (Epoch: 25 May)

Event Time Altitude Azimuth Distance (km) Brightness Sun altitude
Rises 05:02:52 0° 282° (WNW) 2,868 - -77.6°
Reaches altitude 10° 05:06:39 10° 250° (WSW) 1,957 - -76.8°
Maximum altitude 05:08:18 12° 229° (SW) 1,835 - -76.5°
Drops below altitude 10° 05:09:57 10° 207° (SSW) 1,949 - -76.1°
Sets 05:13:43 0° 175° (S) 2,843 - -75.3°
